Year,Month,Day,Hour,Minute,Value (Times are PST for temperature in C)
2019,04,28,00,00,6.60
2019,04,28,00,01,6.60
2019,04,28,00,02,6.60
2019,04,28,00,03,6.60
2019,04,28,00,04,6.60
2019,04,28,00,05,6.60
2019,04,28,00,06,6.60
2019,04,28,00,07,6.60
2019,04,28,00,08,6.60
2019,04,28,00,09,6.60
2019,04,28,00,10,6.60
2019,04,28,00,11,6.40
2019,04,28,00,12,6.40
2019,04,28,00,13,6.40
2019,04,28,00,14,6.40
2019,04,28,00,15,6.40
2019,04,28,00,16,6.40
2019,04,28,00,17,6.40
2019,04,28,00,18,6.40
2019,04,28,00,19,6.30
2019,04,28,00,20,6.30
2019,04,28,00,21,6.30
2019,04,28,00,22,6.30
2019,04,28,00,23,6.30
2019,04,28,00,24,6.30
2019,04,28,00,25,6.30
2019,04,28,00,26,6.20
2019,04,28,00,27,6.20
2019,04,28,00,28,6.20
2019,04,28,00,29,6.20
2019,04,28,00,30,6.20
2019,04,28,00,31,6.20
2019,04,28,00,32,6.20
2019,04,28,00,33,6.10
2019,04,28,00,34,6.10
2019,04,28,00,35,6.00
2019,04,28,00,36,6.00
2019,04,28,00,37,5.90
2019,04,28,00,38,5.90
2019,04,28,00,39,5.80
2019,04,28,00,40,5.80
2019,04,28,00,41,5.70
2019,04,28,00,42,5.70
2019,04,28,00,43,5.70
2019,04,28,00,44,5.60
2019,04,28,00,45,5.60
2019,04,28,00,46,5.60
2019,04,28,00,47,5.50
2019,04,28,00,48,5.50
2019,04,28,00,49,5.40
2019,04,28,00,50,5.40
2019,04,28,00,51,5.40
2019,04,28,00,52,5.30
2019,04,28,00,53,5.30
2019,04,28,00,54,5.30
2019,04,28,00,55,5.30
2019,04,28,00,56,5.20
2019,04,28,00,57,5.20
2019,04,28,00,58,5.10
2019,04,28,00,59,5.10
2019,04,28,01,00,5.10
2019,04,28,01,01,5.10
2019,04,28,01,02,5.10
2019,04,28,01,03,5.00
2019,04,28,01,04,4.90
2019,04,28,01,05,4.90
2019,04,28,01,06,4.90
2019,04,28,01,07,4.90
2019,04,28,01,08,4.90
2019,04,28,01,09,4.90
2019,04,28,01,10,4.90
2019,04,28,01,11,4.80
2019,04,28,01,12,4.80
2019,04,28,01,13,4.80
2019,04,28,01,14,4.80
2019,04,28,01,15,4.80
2019,04,28,01,16,4.70
2019,04,28,01,17,4.70
2019,04,28,01,18,4.70
2019,04,28,01,19,4.70
2019,04,28,01,20,4.70
2019,04,28,01,21,4.70
2019,04,28,01,22,4.70
2019,04,28,01,23,4.70
2019,04,28,01,24,4.60
2019,04,28,01,25,4.60
2019,04,28,01,26,4.60
2019,04,28,01,27,4.60
2019,04,28,01,28,4.60
2019,04,28,01,29,4.50
2019,04,28,01,30,4.50
2019,04,28,01,31,4.50
2019,04,28,01,32,4.40
2019,04,28,01,33,4.40
2019,04,28,01,34,4.40
2019,04,28,01,35,4.40
2019,04,28,01,36,4.30
2019,04,28,01,37,4.30
2019,04,28,01,38,4.30
2019,04,28,01,39,4.30
2019,04,28,01,40,4.20
2019,04,28,01,41,4.20
2019,04,28,01,42,4.20
2019,04,28,01,43,4.20
2019,04,28,01,44,4.20
2019,04,28,01,45,4.10
2019,04,28,01,46,4.10
2019,04,28,01,47,4.10
2019,04,28,01,48,4.00
2019,04,28,01,49,4.00
2019,04,28,01,50,4.00
2019,04,28,01,51,4.00
2019,04,28,01,52,3.90
2019,04,28,01,53,3.90
2019,04,28,01,54,3.90
2019,04,28,01,55,3.90
2019,04,28,01,56,3.80
2019,04,28,01,57,3.80
2019,04,28,01,58,3.80
2019,04,28,01,59,3.80
2019,04,28,02,00,3.80
2019,04,28,02,01,3.80
2019,04,28,02,02,3.80
2019,04,28,02,03,3.80
2019,04,28,02,04,3.70
2019,04,28,02,05,3.70
2019,04,28,02,06,3.70
2019,04,28,02,07,3.70
2019,04,28,02,08,3.60
2019,04,28,02,09,3.60
2019,04,28,02,10,3.60
2019,04,28,02,11,3.50
2019,04,28,02,12,3.50
2019,04,28,02,13,3.50
2019,04,28,02,14,3.50
2019,04,28,02,15,3.40
2019,04,28,02,16,3.40
2019,04,28,02,17,3.40
2019,04,28,02,18,3.30
2019,04,28,02,19,3.30
2019,04,28,02,20,3.30
2019,04,28,02,21,3.30
2019,04,28,02,22,3.30
2019,04,28,02,23,3.30
2019,04,28,02,24,3.30
2019,04,28,02,25,3.30
2019,04,28,02,26,3.30
2019,04,28,02,27,3.30
2019,04,28,02,28,3.20
2019,04,28,02,29,3.20
2019,04,28,02,30,3.20
2019,04,28,02,31,3.20
2019,04,28,02,32,3.20
2019,04,28,02,33,3.20
2019,04,28,02,34,3.20
2019,04,28,02,35,3.20
2019,04,28,02,36,3.10
2019,04,28,02,37,3.10
2019,04,28,02,38,3.10
2019,04,28,02,39,3.10
2019,04,28,02,40,3.10
2019,04,28,02,41,3.10
2019,04,28,02,42,3.10
2019,04,28,02,43,3.10
2019,04,28,02,44,3.10
2019,04,28,02,45,3.10
2019,04,28,02,46,3.10
2019,04,28,02,47,3.00
2019,04,28,02,48,2.90
2019,04,28,02,49,2.90
2019,04,28,02,50,2.90
2019,04,28,02,51,2.90
2019,04,28,02,52,2.90
2019,04,28,02,53,2.90
2019,04,28,02,54,2.90
2019,04,28,02,55,2.90
2019,04,28,02,56,2.90
2019,04,28,02,57,2.80
2019,04,28,02,58,2.80
2019,04,28,02,59,2.80
2019,04,28,03,00,2.80
2019,04,28,03,01,2.80
2019,04,28,03,02,2.80
2019,04,28,03,03,2.70
2019,04,28,03,04,2.70
2019,04,28,03,05,2.80
2019,04,28,03,06,2.80
2019,04,28,03,07,2.70
2019,04,28,03,08,2.70
2019,04,28,03,09,2.70
2019,04,28,03,10,2.70
2019,04,28,03,11,2.70
2019,04,28,03,12,2.70
2019,04,28,03,13,2.70
2019,04,28,03,14,2.70
2019,04,28,03,15,2.70
2019,04,28,03,16,2.70
2019,04,28,03,17,2.70
2019,04,28,03,18,2.70
2019,04,28,03,19,2.70
2019,04,28,03,20,2.70
2019,04,28,03,21,2.70
2019,04,28,03,22,2.60
2019,04,28,03,23,2.60
2019,04,28,03,24,2.60
2019,04,28,03,25,2.60
2019,04,28,03,26,2.50
2019,04,28,03,27,2.50
2019,04,28,03,28,2.50
2019,04,28,03,29,2.50
2019,04,28,03,30,2.50
2019,04,28,03,31,2.50
2019,04,28,03,32,2.50
2019,04,28,03,33,2.50
2019,04,28,03,34,2.40
2019,04,28,03,35,2.40
2019,04,28,03,36,2.40
2019,04,28,03,37,2.40
2019,04,28,03,38,2.40
2019,04,28,03,39,2.40
2019,04,28,03,40,2.40
2019,04,28,03,41,2.40
2019,04,28,03,42,2.40
2019,04,28,03,43,2.30
2019,04,28,03,44,2.30
2019,04,28,03,45,2.30
2019,04,28,03,46,2.30
2019,04,28,03,47,2.30
2019,04,28,03,48,2.30
2019,04,28,03,49,2.20
2019,04,28,03,50,2.20
2019,04,28,03,51,2.20
2019,04,28,03,52,2.20
2019,04,28,03,53,2.20
2019,04,28,03,54,2.20
2019,04,28,03,55,2.20
2019,04,28,03,56,2.20
2019,04,28,03,57,2.20
2019,04,28,03,58,2.20
2019,04,28,03,59,2.20
2019,04,28,04,00,2.20
2019,04,28,04,01,2.20
2019,04,28,04,02,2.20
2019,04,28,04,03,2.20
2019,04,28,04,04,2.20
2019,04,28,04,05,2.20
2019,04,28,04,06,2.20
2019,04,28,04,07,2.10
2019,04,28,04,08,2.10
2019,04,28,04,09,2.10
2019,04,28,04,10,2.10
2019,04,28,04,11,2.10
2019,04,28,04,12,2.10
2019,04,28,04,13,2.10
2019,04,28,04,14,2.10
2019,04,28,04,15,2.00
2019,04,28,04,16,2.00
2019,04,28,04,17,2.00
2019,04,28,04,18,2.00
2019,04,28,04,19,2.00
2019,04,28,04,20,1.90
2019,04,28,04,21,1.90
2019,04,28,04,22,1.90
2019,04,28,04,23,1.90
2019,04,28,04,24,1.90
2019,04,28,04,25,1.90
2019,04,28,04,26,1.80
2019,04,28,04,27,1.80
2019,04,28,04,28,1.80
2019,04,28,04,29,1.80
2019,04,28,04,30,1.80
2019,04,28,04,31,1.80
2019,04,28,04,32,1.80
2019,04,28,04,33,1.80
2019,04,28,04,34,1.80
2019,04,28,04,35,1.80
2019,04,28,04,36,1.80
2019,04,28,04,37,1.80
2019,04,28,04,38,1.80
2019,04,28,04,39,1.80
2019,04,28,04,40,1.80
2019,04,28,04,41,1.80
2019,04,28,04,42,1.70
2019,04,28,04,43,1.70
2019,04,28,04,44,1.70
2019,04,28,04,45,1.70
2019,04,28,04,46,1.70
2019,04,28,04,47,1.70
2019,04,28,04,48,1.70
2019,04,28,04,49,1.70
2019,04,28,04,50,1.70
2019,04,28,04,51,1.60
2019,04,28,04,52,1.60
2019,04,28,04,53,1.60
2019,04,28,04,54,1.60
2019,04,28,04,55,1.60
2019,04,28,04,56,1.60
2019,04,28,04,57,1.60
2019,04,28,04,58,1.60
2019,04,28,04,59,1.60
2019,04,28,05,00,1.60
2019,04,28,05,01,1.60
2019,04,28,05,02,1.60
2019,04,28,05,03,1.60
2019,04,28,05,04,1.60
2019,04,28,05,05,1.60
2019,04,28,05,06,1.50
2019,04,28,05,07,1.50
2019,04,28,05,08,1.50
2019,04,28,05,09,1.50
2019,04,28,05,10,1.50
2019,04,28,05,11,1.50
2019,04,28,05,12,1.50
2019,04,28,05,13,1.50
2019,04,28,05,14,1.50
2019,04,28,05,15,1.50
2019,04,28,05,16,1.50
2019,04,28,05,17,1.50
2019,04,28,05,18,1.40
2019,04,28,05,19,1.40
2019,04,28,05,20,1.40
2019,04,28,05,21,1.40
2019,04,28,05,22,1.40
2019,04,28,05,23,1.40
2019,04,28,05,24,1.40
2019,04,28,05,25,1.40
2019,04,28,05,26,1.40
2019,04,28,05,27,1.40
2019,04,28,05,28,1.40
2019,04,28,05,29,1.40
2019,04,28,05,30,1.40
2019,04,28,05,31,1.40
2019,04,28,05,32,1.40
2019,04,28,05,33,1.30
2019,04,28,05,34,1.30
2019,04,28,05,35,1.30
2019,04,28,05,36,1.40
2019,04,28,05,37,1.40
2019,04,28,05,38,1.40
2019,04,28,05,39,1.40
2019,04,28,05,40,1.40
2019,04,28,05,41,1.30
2019,04,28,05,42,1.30
2019,04,28,05,43,1.30
2019,04,28,05,44,1.30
2019,04,28,05,45,1.30
2019,04,28,05,46,1.30
2019,04,28,05,47,1.30
2019,04,28,05,48,1.30
2019,04,28,05,49,1.30
2019,04,28,05,50,1.20
2019,04,28,05,51,1.20
2019,04,28,05,52,1.20
2019,04,28,05,53,1.20
2019,04,28,05,54,1.10
2019,04,28,05,55,1.10
2019,04,28,05,56,1.10
2019,04,28,05,57,1.10
2019,04,28,05,58,1.10
2019,04,28,05,59,1.10
2019,04,28,06,00,1.00
2019,04,28,06,01,1.00
2019,04,28,06,02,1.00
2019,04,28,06,03,1.00
2019,04,28,06,04,1.00
2019,04,28,06,05,1.00
2019,04,28,06,06,1.00
2019,04,28,06,07,1.00
2019,04,28,06,08,1.00
2019,04,28,06,09,1.10
2019,04,28,06,10,1.10
2019,04,28,06,11,1.10
2019,04,28,06,12,1.10
2019,04,28,06,13,1.10
2019,04,28,06,14,1.10
2019,04,28,06,15,1.10
2019,04,28,06,16,1.10
2019,04,28,06,17,1.10
2019,04,28,06,18,1.10
2019,04,28,06,19,1.10
2019,04,28,06,20,1.20
2019,04,28,06,21,1.20
2019,04,28,06,22,1.20
2019,04,28,06,23,1.20
2019,04,28,06,24,1.20
2019,04,28,06,25,1.20
2019,04,28,06,26,1.30
2019,04,28,06,27,1.30
2019,04,28,06,28,1.30
2019,04,28,06,29,1.30
2019,04,28,06,30,1.30
2019,04,28,06,31,1.30
2019,04,28,06,32,1.30
2019,04,28,06,33,1.30
2019,04,28,06,34,1.30
2019,04,28,06,35,1.30
2019,04,28,06,36,1.30
2019,04,28,06,37,1.30
2019,04,28,06,38,1.30
2019,04,28,06,39,1.30
2019,04,28,06,40,1.30
2019,04,28,06,41,1.30
2019,04,28,06,42,1.40
2019,04,28,06,43,1.40
2019,04,28,06,44,1.40
2019,04,28,06,45,1.50
2019,04,28,06,46,1.50
2019,04,28,06,47,1.60
2019,04,28,06,48,1.60
2019,04,28,06,49,1.70
2019,04,28,06,50,1.80
2019,04,28,06,51,1.80
2019,04,28,06,52,1.90
2019,04,28,06,53,2.00
2019,04,28,06,54,2.00
2019,04,28,06,55,2.10
2019,04,28,06,56,2.10
2019,04,28,06,57,2.20
2019,04,28,06,58,2.20
2019,04,28,06,59,2.20
2019,04,28,07,00,2.20
2019,04,28,07,01,2.20
2019,04,28,07,02,2.30
2019,04,28,07,03,2.40
2019,04,28,07,04,2.40
2019,04,28,07,05,2.50
2019,04,28,07,06,2.50
2019,04,28,07,07,2.60
2019,04,28,07,08,2.70
2019,04,28,07,09,2.70
2019,04,28,07,10,2.80
2019,04,28,07,11,2.90
2019,04,28,07,12,2.90
2019,04,28,07,13,3.10
2019,04,28,07,14,3.10
2019,04,28,07,15,3.20
2019,04,28,07,16,3.30
2019,04,28,07,17,3.50
2019,04,28,07,18,3.70
2019,04,28,07,19,3.90
2019,04,28,07,20,4.00
2019,04,28,07,21,4.20
2019,04,28,07,22,4.30
2019,04,28,07,23,4.50
2019,04,28,07,24,4.60
2019,04,28,07,25,4.70
2019,04,28,07,26,4.90
2019,04,28,07,27,5.00
2019,04,28,07,28,5.10
2019,04,28,07,29,5.30
2019,04,28,07,30,5.50
2019,04,28,07,31,5.60
2019,04,28,07,32,5.70
2019,04,28,07,33,5.80
2019,04,28,07,34,6.00
2019,04,28,07,35,6.10
2019,04,28,07,36,6.20
2019,04,28,07,37,6.30
2019,04,28,07,38,6.40
2019,04,28,07,39,6.50
2019,04,28,07,40,6.60
2019,04,28,07,41,6.70
2019,04,28,07,42,6.70
2019,04,28,07,43,6.80
2019,04,28,07,44,6.80
2019,04,28,07,45,6.80
2019,04,28,07,46,6.90
2019,04,28,07,47,7.00
2019,04,28,07,48,7.00
2019,04,28,07,49,7.00
2019,04,28,07,50,7.10
2019,04,28,07,51,7.10
2019,04,28,07,52,7.20
2019,04,28,07,53,7.30
2019,04,28,07,54,7.30
2019,04,28,07,55,7.40
2019,04,28,07,56,7.50
2019,04,28,07,57,7.50
2019,04,28,07,58,7.60
2019,04,28,07,59,7.60
2019,04,28,08,00,7.70
2019,04,28,08,01,7.80
2019,04,28,08,02,7.90
2019,04,28,08,03,8.00
2019,04,28,08,04,8.00
2019,04,28,08,05,8.20
2019,04,28,08,06,8.30
2019,04,28,08,07,8.40
2019,04,28,08,08,8.50
2019,04,28,08,09,8.60
2019,04,28,08,10,8.70
2019,04,28,08,11,8.70
2019,04,28,08,12,8.80
2019,04,28,08,13,8.90
2019,04,28,08,14,8.90
2019,04,28,08,15,9.00
2019,04,28,08,16,9.00
2019,04,28,08,17,9.00
2019,04,28,08,18,9.10
2019,04,28,08,19,9.20
2019,04,28,08,20,9.20
2019,04,28,08,21,9.20
2019,04,28,08,22,9.20
2019,04,28,08,23,9.20
2019,04,28,08,24,9.30
2019,04,28,08,25,9.30
2019,04,28,08,26,9.30
2019,04,28,08,27,9.40
2019,04,28,08,28,9.40
2019,04,28,08,29,9.50
2019,04,28,08,30,9.60
2019,04,28,08,31,9.70
2019,04,28,08,32,9.70
2019,04,28,08,33,9.70
2019,04,28,08,34,9.70
2019,04,28,08,35,9.80
2019,04,28,08,36,9.80
2019,04,28,08,37,9.90
2019,04,28,08,38,9.90
2019,04,28,08,39,9.90
2019,04,28,08,40,9.90
2019,04,28,08,41,9.90
2019,04,28,08,42,10.00
2019,04,28,08,43,10.10
2019,04,28,08,44,10.10
2019,04,28,08,45,10.10
2019,04,28,08,46,10.00
2019,04,28,08,47,9.90
2019,04,28,08,48,9.90
2019,04,28,08,49,9.90
2019,04,28,08,50,9.90
2019,04,28,08,51,9.90
2019,04,28,08,52,9.90
2019,04,28,08,53,9.90
2019,04,28,08,54,9.90
2019,04,28,08,55,9.90
2019,04,28,08,56,10.00
2019,04,28,08,57,10.10
2019,04,28,08,58,10.10
2019,04,28,08,59,10.20
2019,04,28,09,00,10.30
2019,04,28,09,01,10.30
2019,04,28,09,02,10.40
2019,04,28,09,03,10.40
2019,04,28,09,04,10.40
2019,04,28,09,05,10.40
2019,04,28,09,06,10.40
2019,04,28,09,07,10.50
2019,04,28,09,08,10.60
2019,04,28,09,09,10.60
2019,04,28,09,10,10.60
2019,04,28,09,11,10.60
2019,04,28,09,12,10.70
2019,04,28,09,13,10.70
2019,04,28,09,14,10.80
2019,04,28,09,15,10.80
2019,04,28,09,16,10.80
2019,04,28,09,17,10.90
2019,04,28,09,18,10.90
2019,04,28,09,19,10.90
2019,04,28,09,20,10.90
2019,04,28,09,21,10.90
2019,04,28,09,22,10.90
2019,04,28,09,23,10.90
2019,04,28,09,24,10.90
2019,04,28,09,25,10.90
2019,04,28,09,26,10.90
2019,04,28,09,27,10.90
2019,04,28,09,28,10.80
2019,04,28,09,29,10.80
2019,04,28,09,30,10.80
2019,04,28,09,31,10.90
2019,04,28,09,32,10.90
2019,04,28,09,33,11.00
2019,04,28,09,34,11.10
2019,04,28,09,35,11.20
2019,04,28,09,36,11.30
2019,04,28,09,37,11.30
2019,04,28,09,38,11.40
2019,04,28,09,39,11.50
2019,04,28,09,40,11.60
2019,04,28,09,41,11.70
2019,04,28,09,42,11.80
2019,04,28,09,43,11.80
2019,04,28,09,44,11.80
2019,04,28,09,45,11.80
2019,04,28,09,46,11.80
2019,04,28,09,47,11.70
2019,04,28,09,48,11.70
2019,04,28,09,49,11.70
2019,04,28,09,50,11.80
2019,04,28,09,51,11.80
2019,04,28,09,52,11.90
2019,04,28,09,53,11.90
2019,04,28,09,54,12.00
2019,04,28,09,55,12.00
2019,04,28,09,56,12.00
2019,04,28,09,57,11.90
2019,04,28,09,58,11.90
2019,04,28,09,59,11.80
2019,04,28,10,00,11.80
2019,04,28,10,01,11.80
2019,04,28,10,02,11.80
2019,04,28,10,03,11.80
2019,04,28,10,04,11.80
2019,04,28,10,05,11.80
2019,04,28,10,06,11.80
2019,04,28,10,07,11.80
2019,04,28,10,08,11.80
2019,04,28,10,09,11.80
2019,04,28,10,10,11.90
2019,04,28,10,11,11.90
2019,04,28,10,12,12.00
2019,04,28,10,13,12.00
2019,04,28,10,14,12.00
2019,04,28,10,15,12.00
2019,04,28,10,16,12.00
2019,04,28,10,17,12.10
2019,04,28,10,18,12.10
2019,04,28,10,19,12.10
2019,04,28,10,20,12.00
2019,04,28,10,21,12.10
2019,04,28,10,22,12.10
2019,04,28,10,23,12.10
2019,04,28,10,24,12.10
2019,04,28,10,25,12.00
2019,04,28,10,26,12.00
2019,04,28,10,27,12.00
2019,04,28,10,28,12.10
2019,04,28,10,29,12.10
2019,04,28,10,30,12.20
2019,04,28,10,31,12.30
2019,04,28,10,32,12.50
2019,04,28,10,33,12.50
2019,04,28,10,34,12.60
2019,04,28,10,35,12.60
2019,04,28,10,36,12.60
2019,04,28,10,37,12.60
2019,04,28,10,38,12.60
2019,04,28,10,39,12.60
2019,04,28,10,40,12.70
2019,04,28,10,41,12.80
2019,04,28,10,42,12.80
2019,04,28,10,43,12.80
2019,04,28,10,44,13.00
2019,04,28,10,45,13.00
2019,04,28,10,46,13.10
2019,04,28,10,47,13.10
2019,04,28,10,48,13.10
2019,04,28,10,49,13.00
2019,04,28,10,50,13.10
2019,04,28,10,51,13.20
2019,04,28,10,52,13.20
2019,04,28,10,53,13.20
2019,04,28,10,54,13.20
2019,04,28,10,55,13.00
2019,04,28,10,56,12.90
2019,04,28,10,57,12.90
2019,04,28,10,58,12.90
2019,04,28,10,59,13.00
2019,04,28,11,00,13.00
2019,04,28,11,01,13.10
2019,04,28,11,02,13.00
2019,04,28,11,03,12.90
2019,04,28,11,04,12.80
2019,04,28,11,05,12.80
2019,04,28,11,06,12.80
2019,04,28,11,07,12.80
2019,04,28,11,08,12.90
2019,04,28,11,09,13.00
2019,04,28,11,10,13.10
2019,04,28,11,11,13.20
2019,04,28,11,12,13.30
2019,04,28,11,13,13.40
2019,04,28,11,14,13.40
2019,04,28,11,15,13.50
2019,04,28,11,16,13.50
2019,04,28,11,17,13.50
2019,04,28,11,18,13.40
2019,04,28,11,19,13.40
2019,04,28,11,20,13.30
2019,04,28,11,21,13.40
2019,04,28,11,22,13.40
2019,04,28,11,23,13.40
2019,04,28,11,24,13.30
2019,04,28,11,25,13.20
2019,04,28,11,26,13.20
2019,04,28,11,27,13.20
2019,04,28,11,28,13.30
2019,04,28,11,29,13.30
2019,04,28,11,30,13.30
2019,04,28,11,31,13.30
2019,04,28,11,32,13.50
2019,04,28,11,33,13.60
2019,04,28,11,34,13.70
2019,04,28,11,35,13.70
2019,04,28,11,36,13.70
2019,04,28,11,37,13.70
2019,04,28,11,38,13.70
2019,04,28,11,39,13.70
2019,04,28,11,40,13.70
2019,04,28,11,41,13.70
2019,04,28,11,42,13.60
2019,04,28,11,43,13.50
2019,04,28,11,44,13.50
2019,04,28,11,45,13.40
2019,04,28,11,46,13.30
2019,04,28,11,47,13.20
2019,04,28,11,48,13.20
2019,04,28,11,49,13.30
2019,04,28,11,50,13.30
2019,04,28,11,51,13.40
2019,04,28,11,52,13.40
2019,04,28,11,53,13.50
2019,04,28,11,54,13.50
2019,04,28,11,55,13.40
2019,04,28,11,56,13.30
2019,04,28,11,57,13.20
2019,04,28,11,58,13.20
2019,04,28,11,59,13.20
2019,04,28,12,00,13.30
2019,04,28,12,01,13.30
2019,04,28,12,02,13.30
2019,04,28,12,03,13.30
2019,04,28,12,04,13.40
2019,04,28,12,05,13.50
2019,04,28,12,06,13.60
2019,04,28,12,07,13.70
2019,04,28,12,08,13.80
2019,04,28,12,09,14.00
2019,04,28,12,10,14.00
2019,04,28,12,11,13.90
2019,04,28,12,12,13.80
2019,04,28,12,13,13.70
2019,04,28,12,14,13.60
2019,04,28,12,15,13.40
2019,04,28,12,16,13.30
2019,04,28,12,17,13.10
2019,04,28,12,18,13.10
2019,04,28,12,19,13.10
2019,04,28,12,20,13.10
2019,04,28,12,21,13.00
2019,04,28,12,22,12.90
2019,04,28,12,23,12.90
2019,04,28,12,24,13.00
2019,04,28,12,25,12.90
2019,04,28,12,26,12.70
2019,04,28,12,27,12.50
2019,04,28,12,28,12.40
2019,04,28,12,29,12.30
2019,04,28,12,30,12.40
2019,04,28,12,31,12.50
2019,04,28,12,32,12.50
2019,04,28,12,33,12.50
2019,04,28,12,34,12.50
2019,04,28,12,35,12.50
2019,04,28,12,36,12.40
2019,04,28,12,37,12.30
2019,04,28,12,38,12.30
2019,04,28,12,39,12.30
2019,04,28,12,40,12.30
2019,04,28,12,41,12.30
2019,04,28,12,42,12.40
2019,04,28,12,43,12.40
2019,04,28,12,44,12.50
2019,04,28,12,45,12.60
2019,04,28,12,46,12.70
2019,04,28,12,47,12.80
2019,04,28,12,48,12.90
2019,04,28,12,49,12.90
2019,04,28,12,50,12.90
2019,04,28,12,51,13.00
2019,04,28,12,52,13.10
2019,04,28,12,53,13.10
2019,04,28,12,54,13.10
2019,04,28,12,55,13.10
2019,04,28,12,56,13.10
2019,04,28,12,57,12.90
2019,04,28,12,58,12.70
2019,04,28,12,59,12.50
2019,04,28,13,00,12.30
2019,04,28,13,01,12.10
2019,04,28,13,02,12.00
2019,04,28,13,03,12.10
2019,04,28,13,04,12.20
2019,04,28,13,05,12.30
2019,04,28,13,06,12.50
2019,04,28,13,07,12.60
2019,04,28,13,08,12.80
2019,04,28,13,09,12.90
2019,04,28,13,10,13.00
2019,04,28,13,11,13.00
2019,04,28,13,12,13.00
2019,04,28,13,13,13.10
2019,04,28,13,14,13.10
2019,04,28,13,15,13.10
2019,04,28,13,16,12.90
2019,04,28,13,17,12.80
2019,04,28,13,18,12.80
2019,04,28,13,19,12.80
2019,04,28,13,20,12.80
2019,04,28,13,21,12.90
2019,04,28,13,22,13.00
2019,04,28,13,23,13.10
2019,04,28,13,24,13.10
2019,04,28,13,25,12.80
2019,04,28,13,26,12.70
2019,04,28,13,27,12.70
2019,04,28,13,28,12.70
2019,04,28,13,29,12.80
2019,04,28,13,30,12.80
2019,04,28,13,31,12.80
2019,04,28,13,32,12.80
2019,04,28,13,33,12.70
2019,04,28,13,34,12.50
2019,04,28,13,35,12.30
2019,04,28,13,36,12.20
2019,04,28,13,37,12.10
2019,04,28,13,38,12.00
2019,04,28,13,39,12.00
2019,04,28,13,40,11.90
2019,04,28,13,41,11.90
2019,04,28,13,42,11.90
2019,04,28,13,43,11.90
2019,04,28,13,44,12.00
2019,04,28,13,45,12.00
2019,04,28,13,46,12.10
2019,04,28,13,47,12.20
2019,04,28,13,48,12.30
2019,04,28,13,49,12.40
2019,04,28,13,50,12.50
2019,04,28,13,51,12.50
2019,04,28,13,52,12.40
2019,04,28,13,53,12.30
2019,04,28,13,54,12.30
2019,04,28,13,55,12.10
2019,04,28,13,56,12.00
2019,04,28,13,57,11.90
2019,04,28,13,58,11.80
2019,04,28,13,59,11.90
2019,04,28,14,00,12.00
2019,04,28,14,01,12.00
2019,04,28,14,02,12.00
2019,04,28,14,03,11.90
2019,04,28,14,04,11.90
2019,04,28,14,05,11.90
2019,04,28,14,06,11.90
2019,04,28,14,07,11.90
2019,04,28,14,08,12.00
2019,04,28,14,09,12.00
2019,04,28,14,10,12.10
2019,04,28,14,11,12.20
2019,04,28,14,12,12.20
2019,04,28,14,13,12.30
2019,04,28,14,14,12.30
2019,04,28,14,15,12.30
2019,04,28,14,16,12.40
2019,04,28,14,17,12.40
2019,04,28,14,18,12.40
2019,04,28,14,19,12.50
2019,04,28,14,20,12.60
2019,04,28,14,21,12.80
2019,04,28,14,22,12.90
2019,04,28,14,23,13.10
2019,04,28,14,24,13.20
2019,04,28,14,25,13.30
2019,04,28,14,26,13.50
2019,04,28,14,27,13.50
2019,04,28,14,28,13.60
2019,04,28,14,29,13.70
2019,04,28,14,30,13.80
2019,04,28,14,31,13.90
2019,04,28,14,32,14.10
2019,04,28,14,33,14.30
2019,04,28,14,34,14.40
2019,04,28,14,35,14.60
2019,04,28,14,36,14.60
2019,04,28,14,37,14.70
2019,04,28,14,38,14.80
2019,04,28,14,39,14.80
2019,04,28,14,40,14.90
2019,04,28,14,41,14.90
2019,04,28,14,42,14.90
2019,04,28,14,43,14.90
2019,04,28,14,44,14.90
2019,04,28,14,45,14.80
2019,04,28,14,46,14.80
2019,04,28,14,47,14.70
2019,04,28,14,48,14.60
2019,04,28,14,49,14.60
2019,04,28,14,50,14.60
2019,04,28,14,51,14.70
2019,04,28,14,52,14.60
2019,04,28,14,53,14.60
2019,04,28,14,54,14.60
2019,04,28,14,55,14.60
2019,04,28,14,56,14.70
2019,04,28,14,57,14.80
2019,04,28,14,58,14.80
2019,04,28,14,59,14.80
2019,04,28,15,00,15.00
2019,04,28,15,01,15.00
2019,04,28,15,02,15.10
2019,04,28,15,03,15.10
2019,04,28,15,04,15.00
2019,04,28,15,05,14.90
2019,04,28,15,06,14.90
2019,04,28,15,07,14.80
2019,04,28,15,08,14.80
2019,04,28,15,09,14.70
2019,04,28,15,10,14.70
2019,04,28,15,11,14.70
2019,04,28,15,12,14.70
2019,04,28,15,13,14.60
2019,04,28,15,14,14.50
2019,04,28,15,15,14.40
2019,04,28,15,16,14.20
2019,04,28,15,17,14.00
2019,04,28,15,18,14.00
2019,04,28,15,19,14.00
2019,04,28,15,20,13.90
2019,04,28,15,21,13.80
2019,04,28,15,22,13.70
2019,04,28,15,23,13.70
2019,04,28,15,24,13.70
2019,04,28,15,25,13.80
2019,04,28,15,26,13.90
2019,04,28,15,27,13.90
2019,04,28,15,28,13.90
2019,04,28,15,29,13.90
2019,04,28,15,30,13.80
2019,04,28,15,31,13.80
2019,04,28,15,32,13.60
2019,04,28,15,33,13.40
2019,04,28,15,34,13.20
2019,04,28,15,35,13.20
2019,04,28,15,36,13.10
2019,04,28,15,37,13.10
2019,04,28,15,38,13.10
2019,04,28,15,39,13.20
2019,04,28,15,40,13.30
2019,04,28,15,41,13.30
2019,04,28,15,42,13.30
2019,04,28,15,43,13.30
2019,04,28,15,44,13.50
2019,04,28,15,45,13.60
2019,04,28,15,46,13.60
2019,04,28,15,47,13.60
2019,04,28,15,48,13.50
2019,04,28,15,49,13.50
2019,04,28,15,50,13.60
2019,04,28,15,51,13.50
2019,04,28,15,52,13.30
2019,04,28,15,53,13.40
2019,04,28,15,54,13.50
2019,04,28,15,55,13.50
2019,04,28,15,56,13.40
2019,04,28,15,57,13.40
2019,04,28,15,58,13.30
2019,04,28,15,59,13.30
2019,04,28,16,00,13.30
2019,04,28,16,01,13.30
2019,04,28,16,02,13.50
2019,04,28,16,03,13.70
2019,04,28,16,04,13.90
2019,04,28,16,05,14.00
2019,04,28,16,06,14.10
2019,04,28,16,07,14.20
2019,04,28,16,08,14.20
2019,04,28,16,09,14.20
2019,04,28,16,10,14.20
2019,04,28,16,11,14.20
2019,04,28,16,12,14.20
2019,04,28,16,13,14.20
2019,04,28,16,14,14.10
2019,04,28,16,15,14.00
2019,04,28,16,16,13.90
2019,04,28,16,17,13.80
2019,04,28,16,18,13.80
2019,04,28,16,19,13.70
2019,04,28,16,20,13.50
2019,04,28,16,21,13.50
2019,04,28,16,22,13.50
2019,04,28,16,23,13.60
2019,04,28,16,24,13.60
2019,04,28,16,25,13.60
2019,04,28,16,26,13.70
2019,04,28,16,27,13.60
2019,04,28,16,28,13.50
2019,04,28,16,29,13.50
2019,04,28,16,30,13.40
2019,04,28,16,31,13.30
2019,04,28,16,32,13.30
2019,04,28,16,33,13.40
2019,04,28,16,34,13.50
2019,04,28,16,35,13.50
2019,04,28,16,36,13.60
2019,04,28,16,37,13.60
2019,04,28,16,38,13.60
2019,04,28,16,39,13.60
2019,04,28,16,40,13.50
2019,04,28,16,41,13.50
2019,04,28,16,42,13.50
2019,04,28,16,43,13.60
2019,04,28,16,44,13.60
2019,04,28,16,45,13.70
2019,04,28,16,46,13.90
2019,04,28,16,47,14.00
2019,04,28,16,48,14.00
2019,04,28,16,49,13.90
2019,04,28,16,50,13.90
2019,04,28,16,51,14.00
2019,04,28,16,52,14.00
2019,04,28,16,53,14.00
2019,04,28,16,54,13.90
2019,04,28,16,55,14.00
2019,04,28,16,56,14.00
2019,04,28,16,57,14.00
2019,04,28,16,58,14.00
2019,04,28,16,59,14.10
2019,04,28,17,00,14.30
2019,04,28,17,01,14.40
2019,04,28,17,02,14.50
2019,04,28,17,03,14.60
2019,04,28,17,04,14.60
2019,04,28,17,05,14.60
2019,04,28,17,06,14.50
2019,04,28,17,07,14.50
2019,04,28,17,08,14.50
2019,04,28,17,09,14.30
2019,04,28,17,10,14.20
2019,04,28,17,11,14.20
2019,04,28,17,12,14.20
2019,04,28,17,13,14.10
2019,04,28,17,14,14.10
2019,04,28,17,15,14.10
2019,04,28,17,16,14.10
2019,04,28,17,17,14.10
2019,04,28,17,18,14.10
2019,04,28,17,19,14.10
2019,04,28,17,20,14.00
2019,04,28,17,21,13.90
2019,04,28,17,22,13.90
2019,04,28,17,23,13.80
2019,04,28,17,24,13.80
2019,04,28,17,25,13.70
2019,04,28,17,26,13.70
2019,04,28,17,27,13.70
2019,04,28,17,28,13.60
2019,04,28,17,29,13.60
2019,04,28,17,30,13.60
2019,04,28,17,31,13.70
2019,04,28,17,32,13.80
2019,04,28,17,33,13.80
2019,04,28,17,34,13.90
2019,04,28,17,35,13.90
2019,04,28,17,36,14.00
2019,04,28,17,37,14.10
2019,04,28,17,38,14.10
2019,04,28,17,39,14.10
2019,04,28,17,40,14.00
2019,04,28,17,41,14.00
2019,04,28,17,42,13.90